Lapse_Rate
5.2 5.0 4.7 4.7 4.4 3.9 3.7 4.3 3.9 5.6 5.4 6.8 6.2 6.1 6.0 6.1 5.9 6.4 6.6 6.7 6.6 6.6 6.5 6.4 6.5 6.4 6.5 6.5 6.5 6.4 6.4 6.5 6.3 6.2 6.2 6.1 6.0 6.0 5.8 5.6 5.4 5.2 5.1 4.9
4.5 4.8 4.4 4.3 4.8 4.6 4.3 4.0 4.2 4.6 5.8 6.0 6.1 6.2 6.1 6.0 6.4 6.6 6.5 6.5 6.5 6.4 6.5 6.5 6.3 6.3 6.4 6.5 6.6 6.5 6.4 6.4 6.4 6.4 6.4 6.4 6.3 6.2 6.2 6.1 6.0 5.9 5.8 5.6
3.6 3.6 3.7 4.8 5.9 5.7 5.5 5.5 5.7 4.9 7.2 6.1 6.2 6.2 6.0 6.4 6.7 6.8 6.8 6.7 6.7 6.6 6.5 6.4 6.4 6.4 6.4 6.5 6.5 6.4 6.3 6.4 6.4 6.5 6.5 6.4 6.4 6.4 6.5 6.4 6.4 6.3 6.3 6.2
2.9 3.1 2.7 6.0 5.9 5.8 5.9 6.0 5.9 6.3 7.0 6.6 6.6 6.6 6.6 6.4 6.9 6.9 7.0 6.9 6.9 6.7 6.5 6.5 6.4 6.4 6.6 6.5 6.5 6.5 6.4 6.4 6.5 6.5 6.5 6.5 6.4 6.4 6.3 6.3 6.2 6.2 6.2 6.1
2.6 2.2 4.2 6.1 5.9 5.9 5.8 6.5 6.3 6.7 6.7 6.9 7.0 7.1 6.7 6.7 6.7 6.8 6.8 6.8 6.7 6.7 6.6 6.5 6.4 6.4 6.5 6.6 6.5 6.4 6.4 6.3 6.4 6.4 6.4 6.3 6.3 6.3 6.2 6.2 6.2 6.2 6.2 6.2
2.4 2.2 2.2 5.8 5.8 5.8 5.7 6.3 6.3 6.3 6.2 6.3 6.8 6.9 6.5 6.6 6.8 6.7 6.8 6.9 6.9 6.8 6.7 6.6 6.7 6.6 6.6 6.6 6.6 6.4 6.4 6.4 6.5 6.4 6.4 6.3 6.3 6.1 6.1 6.0 6.0 6.0 5.9 6.0
2.5 2.7 3.9 6.0 5.8 5.7 6.0 6.1 6.0 5.9 5.9 6.1 6.2 6.2 6.2 6.3 6.4 6.6 6.7 6.8 6.8 6.8 6.8 6.8 6.8 6.7 6.7 6.6 6.7 6.6 6.6 6.6 6.6 6.5 6.4 6.4 6.4 6.4 6.3 6.3 6.2 6.1 6.0 6.0
2.3 2.5 4.1 6.5 6.3 5.9 5.8 5.7 5.6 5.7 5.7 5.8 6.0 6.1 6.1 6.2 6.4 6.4 6.5 6.6 6.7 6.7 6.7 6.7 6.7 6.8 6.7 6.7 6.8 6.8 6.7 6.6 6.6 6.6 6.6 6.6 6.5 6.4 6.3 6.2 6.1 6.0 5.8 5.6
5.2 6.7 6.3 6.1 5.6 5.4 5.3 5.3 5.2 5.2 5.1 5.4 6.0 6.4 6.3 6.4 6.3 6.4 6.5 6.6 6.7 6.9 6.9 6.9 6.9 6.9 6.9 6.5 6.8 6.8 6.6 6.6 6.6 6.6 6.5 6.5 6.5 6.4 6.3 6.2 6.0 5.8 5.7 5.6
5.0 6.8 6.2 5.7 5.1 4.9 4.6 5.0 5.1 5.2 5.2 5.4 5.8 5.9 6.3 6.3 6.4 6.4 6.3 6.5 6.6 6.8 7.0 6.9 6.6 6.7 6.8 6.6 6.6 6.7 6.5 6.4 6.5 6.5 6.5 6.5 6.5 6.4 6.3 6.3 6.1 5.8 5.6 5.6
5.1 6.3 5.9 5.6 4.9 5.0 5.3 5.2 5.5 5.5 5.6 5.6 5.6 6.0 6.0 6.2 6.2 6.1 6.3 6.4 6.5 6.7 6.8 6.7 6.6 6.7 6.6 6.4 6.3 6.5 6.5 6.3 6.2 6.4 6.4 6.2 6.1 6.2 6.2 5.9 5.7 5.4 5.5 5.5
6.0 5.7 4.9 5.8 5.7 5.4 5.4 5.4 5.3 5.6 5.9 6.0 6.1 6.1 6.2 6.3 6.2 6.3 6.4 6.3 6.5 6.4 6.5 6.5 6.4 6.4 6.2 6.2 6.5 6.5 6.6 6.3 6.1 6.2 6.0 5.8 5.8 5.8 5.8 5.6 5.5 5.1 5.1 5.2
6.0 6.0 6.0 5.9 5.6 5.4 5.5 5.7 5.7 5.8 6.0 6.4 6.1 6.0 6.1 6.2 6.1 6.2 6.3 6.4 6.4 6.4 6.3 6.4 6.4 6.2 5.9 6.1 6.3 6.4 6.5 6.3 6.1 6.0 5.7 5.5 5.5 5.7 5.8 5.4 5.5 5.2 5.3 5.3
4.9 4.8 6.5 5.9 5.9 5.9 5.5 5.4 5.3 5.2 5.1 5.5 5.7 5.9 5.9 5.8 5.8 6.0 6.0 6.1 6.3 6.5 6.6 6.6 6.4 6.2 6.3 6.2 6.1 6.1 6.2 6.2 6.1 5.8 5.7 5.7 5.6 5.6 5.4 5.3 5.2 4.9 4.8 5.1
4.5 4.4 5.3 5.9 6.2 6.1 5.6 5.6 5.5 5.6 5.4 5.3 5.4 5.6 5.7 5.8 5.8 5.7 5.7 5.8 6.0 6.2 6.3 6.2 6.1 6.0 6.0 6.1 6.2 6.1 6.1 6.1 6.1 6.1 5.8 5.5 5.5 5.4 5.4 5.3 5.2 5.2 4.9 4.8
4.3 4.6 4.9 5.2 6.1 6.0 5.6 5.3 5.3 5.8 5.7 5.3 5.4 5.4 5.6 5.6 5.5 5.6 5.4 5.4 5.4 5.5 5.5 5.7 5.9 6.0 5.9 5.9 6.1 6.2 6.1 6.0 6.0 5.9 5.7 5.5 5.4 5.5 5.6 5.4 5.3 5.1 5.2 4.8
4.2 4.7 5.1 5.4 5.6 5.9 5.6 5.4 5.3 5.6 5.5 5.4 5.3 5.1 5.2 5.4 5.2 5.0 5.0 5.1 5.2 5.3 5.5 5.5 5.6 5.9 5.9 6.0 6.1 6.1 6.1 5.9 5.7 5.6 5.4 5.1 5.4 5.5 5.4 5.4 5.4 5.3 5.0 4.7
4.4 4.6 4.9 5.2 5.9 5.9 5.7 5.4 5.3 5.3 5.7 5.6 4.9 4.9 4.9 4.8 4.8 4.7 4.8 4.8 4.8 4.7 4.9 5.1 5.2 5.3 5.4 5.5 5.6 5.6 5.6 5.6 5.1 5.2 5.3 5.5 5.5 5.5 5.6 5.6 5.4 5.3 5.2 4.9
4.8 5.2 5.3 5.2 5.6 5.8 5.5 5.3 5.4 5.3 5.1 5.1 4.9 4.8 4.7 4.7 4.7 4.9 4.7 4.5 4.6 4.7 4.7 4.8 4.9 4.9 5.0 5.1 5.3 5.2 5.2 5.2 5.2 5.0 5.2 5.5 5.6 5.5 5.6 5.6 5.5 5.4 5.2 5.0
5.4 5.6 5.9 6.4 5.9 5.6 5.2 4.8 4.6 4.8 4.9 4.8 4.8 4.7 4.6 4.5 4.5 4.6 4.6 4.4 4.8 5.0 4.9 4.8 4.9 4.8 4.7 5.0 5.1 5.2 5.2 5.2 5.2 5.0 5.3 5.6 5.7 5.7 5.8 5.7 5.7 5.6 5.3 5.1
5.6 5.6 5.9 6.0 5.7 5.8 5.4 5.0 4.7 4.5 4.5 4.7 4.7 4.7 4.7 4.5 4.4 4.4 4.4 4.6 4.4 4.5 4.7 4.6 4.8 5.0 5.1 5.1 5.1 5.1 5.2 5.2 5.2 5.3 5.5 5.6 5.5 5.7 6.0 5.9 5.9 5.7 5.6 5.5
6.0 5.7 5.9 6.0 5.8 5.7 5.7 5.4 5.4 5.2 4.8 4.9 4.8 4.7 4.7 4.5 4.5 4.5 4.4 4.3 4.5 4.4 4.7 4.9 4.9 5.0 4.9 5.1 5.2 5.1 5.0 5.1 5.3 5.5 5.7 5.9 6.0 6.0 6.1 6.2 6.2 6.2 5.9 5.9
6.9 6.8 6.5 6.3 6.2 6.0 5.8 5.5 5.4 5.3 5.2 4.9 4.8 4.7 4.7 4.5 4.3 4.3 4.6 4.5 4.4 4.5 4.5 4.5 4.7 4.7 4.6 4.8 4.8 4.7 4.6 5.0 5.3 5.2 5.5 5.8 6.0 6.2 6.4 6.5 6.3 6.5 6.6 6.2
7.1 7.0 7.0 6.7 6.7 6.5 6.3 6.0 5.8 5.7 5.5 5.3 5.3 5.2 5.1 5.1 5.1 5.0 4.8 4.8 4.7 4.4 4.4 4.6 4.6 4.7 4.9 5.0 4.9 4.7 4.4 4.3 5.0 5.2 5.4 5.3 5.7 6.0 6.1 6.2 6.5 6.6 6.4 6.4
7.6 7.5 7.3 7.3 7.1 7.0 7.0 6.7 6.3 5.8 5.6 5.7 5.8 5.7 5.5 5.5 5.4 5.4 5.4 5.3 5.0 4.8 4.8 4.9 4.9 5.2 5.1 4.9 4.8 4.6 4.4 4.2 4.0 4.9 5.1 5.1 5.6 5.8 5.9 6.1 6.0 6.5 6.2 6.1
7.5 7.8 7.6 7.7 7.7 7.5 7.3 7.2 7.0 6.9 6.7 6.5 6.4 6.2 6.1 6.1 5.8 5.7 5.6 5.5 5.5 5.3 5.4 5.3 5.0 4.7 4.6 4.6 4.7 4.6 4.3 4.3 4.0 4.8 4.7 4.9 5.5 5.9 5.6 5.6 6.2 6.0 5.9 6.3
7.4 7.3 7.7 7.9 7.9 7.6 7.5 7.5 7.5 7.3 7.0 6.9 6.9 6.9 6.7 6.5 6.3 5.8 5.7 5.8 5.5 5.3 5.0 4.9 4.8 4.6 4.4 4.3 4.3 4.2 4.1 3.6 3.9 4.0 3.9 4.9 5.1 5.0 5.1 5.7 5.6 6.1 6.2 5.8
Wind_Speed
6 9 8 13 10 10 15 17 9 2 13 20 9 8 8 7 6 6 8 7 7 6 6 6 5 5 5 5 4 5 5 5 6 6 6 6 7 8 8 8 7 7 7 6
5 8 9 15 17 19 21 20 25 20 27 23 26 16 11 11 9 8 9 8 8 7 6 6 6 5 4 5 4 3 4 5 6 6 6 6 7 7 7 6 6 6 7 6
5 4 8 10 14 23 14 11 23 19 27 14 16 13 7 8 9 13 10 9 7 8 7 6 6 5 5 4 3 3 2 3 3 4 5 6 6 6 6 6 5 6 6 5
4 6 3 5 5 3 15 15 20 16 20 12 9 7 7 8 13 16 11 8 7 6 6 6 4 4 3 4 4 4 4 3 2 3 3 3 4 4 3 3 4 4 4 4
3 5 12 8 2 5 7 8 21 24 24 20 4 7 15 7 5 10 7 7 6 5 5 5 5 5 4 4 5 4 4 3 2 2 3 2 2 3 2 2 3 3 3 5
1 4 5 3 3 2 2 5 5 14 16 6 5 2 5 4 2 4 5 5 6 6 4 5 5 5 5 6 5 6 5 4 3 3 3 3 3 2 1 1 1 2 2 3
7 5 9 10 6 1 2 5 2 6 6 7 5 7 4 2 5 4 5 6 5 5 7 9 5 6 7 7 9 7 5 5 5 4 5 4 3 2 2 2 2 2 2 2
6 5 9 8 6 6 4 5 3 3 5 7 8 6 6 7 7 7 8 7 7 6 8 8 7 7 9 9 10 5 5 5 6 5 4 3 4 3 3 2 3 3 3 3
9 7 4 6 5 5 2 3 4 4 6 7 7 7 8 7 7 8 8 6 5 7 8 7 7 8 9 12 5 5 5 7 6 5 5 5 4 4 2 2 3 3 3 3
2 6 14 16 15 9 8 14 12 8 8 6 9 11 9 8 8 6 6 7 5 6 7 10 6 8 12 10 5 5 7 8 5 6 6 5 4 4 3 4 4 4 4 4
7 13 16 17 11 14 14 6 8 9 9 12 8 12 10 8 7 7 7 6 4 6 7 10 7 7 8 10 5 7 7 8 6 5 6 5 5 5 5 6 6 4 4 4
10 8 9 9 3 3 5 7 9 7 7 6 9 11 6 7 7 5 7 6 7 7 7 9 7 8 8 7 7 7 8 7 7 6 5 5 4 5 11 13 11 13 13 8
20 6 7 7 9 5 12 17 13 8 10 9 6 6 5 5 4 7 7 7 8 8 7 6 7 8 7 5 6 8 9 8 6 7 5 5 4 6 7 4 14 16 15 13
13 8 23 11 12 5 8 11 10 8 8 7 8 5 5 5 5 6 6 6 6 6 6 5 5 7 5 4 5 6 6 12 4 5 5 5 5 6 5 6 6 4 11 14
15 11 19 14 8 12 11 7 9 12 9 9 7 7 5 7 6 6 6 6 5 5 4 4 5 6 5 2 3 5 4 5 5 4 4 6 4 5 6 6 7 7 3 6
14 19 14 16 18 15 12 13 12 16 8 8 7 7 7 6 5 5 5 3 3 5 6 5 4 3 3 2 2 3 4 9 8 4 4 5 5 5 5 6 6 7 6 7
9 17 14 15 12 10 11 11 10 12 7 7 7 6 5 5 5 5 5 4 4 5 5 5 6 4 4 3 2 3 2 3 7 4 4 4 5 5 5 5 6 6 7 7
10 15 17 17 16 16 14 9 7 8 7 6 6 6 5 5 6 5 5 4 4 6 5 5 4 5 4 4 3 3 3 3 3 4 3 4 5 5 5 6 6 6 6 6
9 12 13 11 11 10 10 9 6 5 5 5 5 6 6 5 5 5 4 5 5 5 4 4 4 3 4 5 5 3 3 4 4 4 4 6 5 4 5 5 6 6 6 5
9 8 7 7 8 5 6 5 3 3 4 4 4 4 5 6 6 5 4 6 6 5 4 5 5 4 4 5 7 2 3 5 6 7 7 6 5 5 5 9 7 6 6 5
8 8 9 6 6 7 7 6 5 6 5 4 5 5 5 5 4 4 4 4 6 6 6 7 5 4 3 5 5 3 3 4 5 5 6 6 6 6 6 6 6 5 5 5
7 7 8 8 7 6 4 4 4 5 5 5 6 6 6 7 6 5 7 9 5 8 5 4 5 9 6 9 3 4 4 4 5 5 6 7 6 6 6 5 5 5 4 5
7 6 8 7 7 7 7 7 6 6 7 7 7 7 6 5 4 4 8 5 6 8 6 6 11 13 12 5 4 4 5 5 5 6 6 6 6 6 5 5 4 4 4 4
9 8 7 7 6 6 8 9 6 7 7 8 8 8 6 5 6 7 9 13 14 10 7 6 9 13 11 3 4 4 5 5 5 5 7 11 6 5 5 4 3 3 3 4
9 11 6 9 8 8 9 9 6 6 8 10 12 10 10 8 8 7 3 4 9 8 6 12 14 13 5 4 4 4 5 5 4 5 6 6 6 4 3 3 3 3 2 2
11 9 10 12 10 9 8 5 7 7 5 9 8 6 6 5 5 6 5 8 6 9 6 5 4 5 4 4 4 5 5 5 5 5 7 5 5 3 2 2 2 2 2 2
9 13 9 9 6 7 6 7 5 7 7 7 9 6 5 5 5 5 7 6 6 6 5 4 4 5 4 4 4 4 4 4 6 5 4 3 2 1 1 2 2 2 2 3
Wind_Direction
242 238 230 243 233 203 213 215 210 164 228 260 263 252 254 258 266 286 280 275 258 250 237 246 248 263 280 290 319 340 6 4 2 351 3 9 13 14 17 21 20 21 26 31
274 252 246 255 242 229 227 229 243 253 274 277 272 276 275 266 269 259 269 259 253 245 233 238 244 248 262 277 302 330 357 358 350 353 11 17 17 18 22 22 25 30 31 35
268 334 298 274 239 216 213 213 222 234 242 259 282 275 265 267 248 261 257 253 255 241 228 226 227 228 246 267 289 298 307 327 355 2 20 21 23 26 25 21 24 31 27 28
293 357 284 251 295 215 213 234 219 242 254 242 251 283 282 253 265 276 264 252 245 234 231 230 221 219 241 255 266 270 268 283 336 2 11 11 19 27 16 12 30 33 33 31
285 290 294 297 11 164 176 275 216 224 245 255 285 332 294 250 244 253 263 266 253 232 215 215 212 215 219 258 260 268 271 283 301 318 327 341 354 340 339 351 20 34 22 23
184 291 265 280 339 223 193 293 215 206 235 232 126 256 264 252 242 272 261 251 250 228 220 220 225 201 209 239 246 250 240 236 242 249 266 281 281 286 276 299 334 0 27 20
223 263 276 246 233 321 22 251 193 186 212 168 190 210 215 230 276 254 252 262 239 219 224 227 208 190 220 231 239 236 223 222 233 230 234 239 263 243 253 266 272 302 316 334
183 219 268 166 90 174 221 311 314 272 228 204 234 267 263 278 275 280 278 276 249 239 238 234 209 200 229 235 240 216 216 226 236 236 237 232 237 250 256 274 297 301 313 321
198 217 268 225 229 229 188 248 279 241 245 231 249 254 262 264 273 270 265 266 249 237 254 252 225 210 234 247 219 214 216 231 233 232 237 239 243 253 260 236 251 272 263 269
317 263 250 246 254 254 252 247 263 245 242 224 249 256 249 265 273 267 261 266 257 260 260 269 241 228 234 256 214 208 229 241 236 237 246 241 239 236 238 242 239 237 240 248
261 279 277 263 234 249 266 276 265 257 242 251 246 257 246 260 258 256 263 264 241 253 258 264 264 248 238 246 197 219 234 247 239 232 238 253 239 234 233 238 225 234 234 234
258 250 238 265 272 239 241 259 269 257 273 248 217 244 233 254 255 256 267 270 272 258 252 262 263 261 251 231 191 210 231 242 237 233 239 239 244 263 243 245 245 241 244 231
253 262 256 280 272 233 254 267 262 252 242 261 253 230 241 251 260 279 272 268 265 264 262 262 274 280 276 250 205 218 230 237 231 225 230 237 234 241 266 249 244 244 245 247
260 291 283 256 270 261 237 257 270 257 250 230 240 234 244 257 276 271 272 265 272 273 269 261 265 271 282 261 225 233 239 250 247 246 236 232 232 239 240 254 266 260 241 240
271 230 258 287 284 277 276 269 261 260 253 247 222 236 234 251 259 267 278 283 281 271 290 311 307 301 323 309 226 242 236 240 238 236 232 243 232 234 237 245 249 257 255 252
302 292 283 271 274 268 269 274 257 269 243 235 233 232 233 233 253 267 276 280 312 300 296 286 271 263 300 312 266 245 247 256 255 233 236 229 226 232 234 235 246 253 252 246
294 293 308 291 292 286 252 253 249 260 251 220 225 209 198 217 250 265 277 291 284 281 283 282 282 300 306 299 266 255 244 251 251 243 230 233 228 227 233 231 236 239 247 242
260 270 277 275 283 287 286 263 252 247 230 228 186 184 207 216 242 260 268 275 285 288 274 261 269 301 318 319 310 290 277 273 269 248 234 232 237 224 226 228 236 240 248 244
290 285 282 277 275 272 277 272 255 229 203 191 174 204 219 241 252 260 278 283 279 286 273 206 261 281 292 298 310 288 291 291 285 280 268 260 249 226 218 224 231 234 240 241
304 299 314 326 328 310 307 307 258 223 216 197 211 218 243 243 239 250 246 261 241 234 237 235 221 240 263 278 291 257 276 297 294 291 285 274 244 236 230 230 233 231 231 228
323 331 325 345 334 327 327 325 307 287 276 240 223 241 252 278 267 262 263 262 259 233 223 232 226 233 233 251 256 248 235 248 265 279 273 264 266 254 231 232 229 226 229 225
316 317 306 307 301 287 270 287 272 280 290 281 273 272 276 276 271 259 234 242 279 233 217 221 224 232 234 251 251 252 254 250 260 260 262 261 253 249 242 232 228 224 225 226
284 276 283 288 279 277 302 274 245 240 255 252 248 244 236 248 232 253 283 241 231 224 227 231 233 234 241 244 239 251 255 257 264 269 266 259 256 250 247 240 228 218 212 215
281 282 276 278 281 277 277 278 245 249 237 241 243 241 237 264 268 227 242 259 254 242 236 245 245 249 258 223 234 243 251 257 259 270 271 272 261 250 242 237 232 217 216 226
277 284 264 280 277 271 258 259 271 258 248 251 253 250 236 229 225 263 205 242 260 258 246 244 244 254 253 232 242 248 251 251 263 269 269 266 261 247 236 227 229 217 210 209
280 282 286 276 268 273 268 257 255 265 260 271 267 250 253 243 233 242 252 256 248 249 246 250 235 247 240 235 237 243 250 252 264 275 275 272 255 241 223 209 211 195 164 171
269 270 272 276 262 252 253 247 253 263 251 251 261 256 247 248 240 240 247 249 245 241 229 223 226 244 235 234 244 244 248 250 265 270 260 250 225 209 175 184 168 152 135 146